Location: Marysville Observatory
(48.1092°N, 122.1645°W)
Time: 04:06:26
(UTC-08:00)

Amateur Radio Satellites - All Passes

Search period start: 24 November 2014 03:36
Search period end: 25 November 2014 03:36
Location: Marysville Observatory, 48.1092°N, 122.1645°W

Satellite Date Start Highest point End Downlink Frequencies (MHz)
Time Altitude Azimuth
BEESAT 3 24 Nov 03:36:37 03:39:51 21° 34° (NNE) 03:43:03 437.485
YUBILEINY 24 Nov 03:37:23 03:46:07 65° 284° (WNW) 03:54:52 435.215
SO-50 24 Nov 03:43:17 03:46:57 25° 114° (ESE) 03:50:43 436.795
ITAMSAT 1 24 Nov 03:48:14 03:52:40 29° 297° (WNW) 03:57:05 435.822/435.867
PCSat 24 Nov 03:48:48 03:53:45 34° 43° (NE) 03:58:39 145.827
BEESAT 2 24 Nov 03:50:11 03:53:38 23° 36° (NE) 03:57:03 435.950
MOZHAYETS 4 24 Nov 04:05:25 04:10:00 74° 74° (ENE) 04:14:38
Gurwin Techsat 1B 24 Nov 04:07:44 04:12:27 33° 296° (WNW) 04:17:09 435.225
AIST 2 24 Nov 04:15:05 04:18:34 23° 35° (NE) 04:22:00 435.215
HORYU 2 24 Nov 04:20:24 04:24:35 40° 292° (WNW) 04:28:47 437.375
RS-15 24 Nov 04:24:00 04:28:40 14° 266° (W) 04:33:25 29.354- 29.394
PRISM 24 Nov 04:28:07 04:31:44 29° 65° (ENE) 04:35:24 437.425
ISS 24 Nov 04:32:19 04:35:33 53° 13° (NNE) 04:38:48 145.825
O/OREOS (USA 219) 24 Nov 05:07:37 05:08:08 10° 96° (E) 05:08:40 437.305
JAS-2 24 Nov 05:13:55 05:21:10 57° 98° (E) 05:27:33 435.910
AO-7 24 Nov 05:14:05 05:22:28 78° 293° (WNW) 05:30:49 29.400- 29.500
CUTE-I 24 Nov 05:14:09 05:17:09 15° 88° (E) 05:20:08 437.470
BEESAT 3 24 Nov 05:14:22 05:18:35 77° 234° (SW) 05:22:44 437.485
STRAND 1 24 Nov 05:21:48 05:26:37 42° 67° (ENE) 05:31:27 437.568
SO-50 24 Nov 05:22:44 05:27:12 53° 314° (NW) 05:31:50 436.795
BEESAT 2 24 Nov 05:28:07 05:32:18 64° 236° (SW) 05:36:26 435.950
PCSat 24 Nov 05:32:08 05:37:23 51° 243° (WSW) 05:42:37 145.827
YUBILEINY 24 Nov 05:39:43 05:45:01 17° 309° (NW) 05:50:19 435.215
CUBESAT XI-V 24 Nov 05:40:51 05:45:28 57° 72° (ENE) 05:50:07 437.345
MOZHAYETS 4 24 Nov 05:45:22 05:47:47 14° 272° (W) 05:50:14
AIST 2 24 Nov 05:53:19 05:57:38 70° 235° (SW) 06:01:53 435.215
PRISM 24 Nov 06:03:28 06:07:14 32° 263° (W) 06:11:04 437.425
ISS 24 Nov 06:09:02 06:12:12 45° 212° (SSW) 06:15:23 145.825
AIST 1 24 Nov 06:09:31 06:13:23 29° 71° (ENE) 06:17:12
Cubesat XI-IV 24 Nov 06:10:39 06:15:47 45° 99° (E) 06:20:51 437.490
O/OREOS (USA 219) 24 Nov 06:42:16 06:46:45 85° 115° (ESE) 06:51:16 437.305
CUTE-I 24 Nov 06:52:34 06:57:56 85° 286° (WNW) 07:03:14 437.470
JAS-2 24 Nov 06:59:20 07:05:50 35° 301° (WNW) 07:11:44 435.910
STRAND 1 24 Nov 07:01:25 07:05:55 30° 265° (W) 07:10:27 437.568
SO-50 24 Nov 07:05:51 07:08:49 16° 337° (NNW) 07:11:50 436.795
AO-7 24 Nov 07:07:55 07:14:03 24° 315° (NW) 07:20:13 29.400- 29.500
CUBESAT XI-V 24 Nov 07:19:54 07:23:16 19° 270° (W) 07:26:40 437.345
GONETS M04 24 Nov 07:31:51 07:39:35 36° 83° (E) 07:47:20
AIST 1 24 Nov 07:47:11 07:51:02 30° 270° (W) 07:54:51
HO-68 24 Nov 07:50:28 07:55:30 20° 88° (E) 08:00:30 435.675
Cubesat XI-IV 24 Nov 07:51:06 07:55:42 30° 298° (WNW) 08:00:16 437.490
CANX-2 24 Nov 07:54:55 07:56:53 13° 88° (E) 07:58:52 2200.000
COMPASS 1 24 Nov 08:05:08 08:06:18 11° 87° (E) 08:07:28 437.405
O/OREOS (USA 219) 24 Nov 08:24:01 08:26:48 16° 315° (NW) 08:29:35 437.305
DOVE 4 24 Nov 08:27:22 08:29:18 13° 89° (E) 08:31:14 437.250
CUTE 1.7 & AOD 2 24 Nov 08:28:35 08:32:11 26° 94° (E) 08:35:46 437.475
CUTE-I 24 Nov 08:34:11 08:37:14 16° 306° (NW) 08:40:16 437.470
ANTELSAT 24 Nov 08:34:23 08:36:58 16° 60° (ENE) 08:39:33 437.575/2403.000
BUGSAT 1 24 Nov 08:39:00 08:40:05 11° 56° (ENE) 08:41:11 437.445
POPSAT HIP 1 24 Nov 08:41:38 08:43:45 14° 58° (ENE) 08:45:52 437.405
UKube-1 24 Nov 08:47:41 08:49:31 12° 88° (E) 08:51:21 .
SO-50 24 Nov 08:50:06 08:51:22 11° 2° (N) 08:52:39 436.795
GOMX 1 24 Nov 08:59:10 09:03:00 35° 97° (E) 09:06:51 467.674
Oscar 11 24 Nov 08:59:20 09:02:29 19° 91° (E) 09:05:38 145.826/435.025
SEEDS 24 Nov 09:03:43 09:07:53 50° 99° (E) 09:12:03 437.485
CUBEBUG 2 24 Nov 09:04:16 09:06:14 13° 89° (E) 09:08:13 437.445
UWE-3 24 Nov 09:08:37 09:10:27 13° 88° (E) 09:12:17 435.000/436.395/437.385
POLYITAN 1 24 Nov 09:12:19 09:15:51 26° 65° (ENE) 09:19:22 437.675
QB50P2 24 Nov 09:15:02 09:18:37 27° 65° (ENE) 09:22:13 145.880/145.840
CINEMA 3 24 Nov 09:16:10 09:19:41 26° 95° (E) 09:23:15 145.822/145.860
BRITE-PL 24 Nov 09:18:02 09:22:13 76° 103° (ESE) 09:26:22 437.365/2234.400
DX 1 24 Nov 09:19:53 09:23:34 26° 95° (E) 09:27:14 434.975-435.025
DUCHIFAT 1 24 Nov 09:22:09 09:25:53 31° 67° (ENE) 09:29:38 145.980
AAUSAT CUBESAT 2 24 Nov 09:24:24 09:28:36 63° 101° (E) 09:32:48 437.432
GONETS M04 24 Nov 09:27:18 09:35:58 60° 286° (WNW) 09:44:45
TIGRISAT 24 Nov 09:28:05 09:32:10 48° 70° (ENE) 09:36:16 435.000
CANX-2 24 Nov 09:29:03 09:33:21 73° 286° (WNW) 09:37:37 2200.000
HO-68 24 Nov 09:36:54 09:44:09 89° 288° (WNW) 09:51:19 435.675
COMPASS 1 24 Nov 09:38:22 09:42:38 83° 285° (WNW) 09:46:53 437.405
DELFI C3 24 Nov 09:39:14 09:43:09 40° 98° (E) 09:47:04 145.870
UNISAT 6 24 Nov 09:40:31 09:44:45 65° 73° (ENE) 09:49:00 437.425
NANOSAT C BR1 24 Nov 09:40:50 09:44:55 47° 70° (ENE) 09:49:00 145.865
VELOX 1 24 Nov 09:42:07 09:44:49 16° 90° (E) 09:47:31 145.980
HUMSAT D 24 Nov 09:44:39 09:47:12 16° 90° (E) 09:49:45 437.325/437.525
50 SAT 24 Nov 09:46:27 09:48:26 13° 89° (E) 09:50:26 437.505
ZACube-1 24 Nov 09:46:36 09:50:09 26° 95° (E) 09:53:45 437.345
QB50P1 24 Nov 09:50:20 09:54:32 59° 72° (ENE) 09:58:44 145.935-145.965
DOVE 4 24 Nov 10:03:27 10:07:34 66° 286° (WNW) 10:11:45 437.250
CUTE 1.7 & AOD 2 24 Nov 10:04:17 10:08:12 35° 292° (WNW) 10:12:07 437.475
AISAT 24 Nov 10:06:24 10:10:12 27° 95° (E) 10:13:58 437.250
ANTELSAT 24 Nov 10:09:05 10:13:19 65° 258° (WSW) 10:17:35 437.575/2403.000
BUGSAT 1 24 Nov 10:10:37 10:14:53 80° 75° (ENE) 10:19:09 437.445
POPSAT HIP 1 24 Nov 10:14:49 10:19:06 79° 257° (WSW) 10:23:23 437.405
FUNcube-1 24 Nov 10:21:48 10:25:57 58° 101° (E) 10:30:10 145.935
UKube-1 24 Nov 10:21:53 10:26:15 77° 286° (WNW) 10:30:34 .
CUBEBUG 1 24 Nov 10:26:52 10:29:46 17° 90° (E) 10:32:38 437.445
SO-50 24 Nov 10:30:27 10:33:50 19° 27° (NNE) 10:37:16 436.795
Oscar 11 24 Nov 10:34:44 10:38:56 49° 289° (WNW) 10:43:07 145.826/435.025
GOMX 1 24 Nov 10:37:40 10:41:03 24° 295° (WNW) 10:44:25 467.674
CUBEBUG 2 24 Nov 10:39:14 10:43:26 70° 286° (WNW) 10:47:41 437.445
SEEDS 24 Nov 10:40:21 10:43:24 20° 297° (WNW) 10:46:28 437.485
UWE-3 24 Nov 10:43:18 10:47:30 72° 286° (WNW) 10:51:46 435.000/436.395/437.385
POLYITAN 1 24 Nov 10:47:44 10:51:40 36° 263° (W) 10:55:38 437.675
QB50P2 24 Nov 10:50:34 10:54:27 34° 263° (W) 10:58:22 145.880/145.840
CINEMA 3 24 Nov 10:53:12 10:56:59 34° 292° (WNW) 11:00:49 145.822/145.860
DX 1 24 Nov 10:55:55 10:59:54 35° 293° (WNW) 11:03:51 434.975-435.025
DUCHIFAT 1 24 Nov 10:58:02 11:01:46 29° 264° (W) 11:05:30 145.980
BRITE-PL 24 Nov 10:58:19 11:00:12 13° 302° (WNW) 11:02:04 437.365/2234.400
AAUSAT CUBESAT 2 24 Nov 11:01:15 11:03:51 16° 299° (WNW) 11:06:26 437.432
Oscar 19 24 Nov 11:04:29 11:07:16 15° 55° (NE) 11:10:03 437.125/150
TIGRISAT 24 Nov 11:06:12 11:09:13 19° 268° (W) 11:12:15 435.000
ESTCUBE 1 24 Nov 11:09:30 11:13:55 46° 99° (E) 11:18:16 437.505/2401.250
DELFI C3 24 Nov 11:15:02 11:18:16 22° 296° (WNW) 11:21:29 145.870
COMPASS 1 24 Nov 11:16:27 11:17:40 11° 303° (WNW) 11:18:53 437.405
VELOX 1 24 Nov 11:17:27 11:21:51 62° 288° (WNW) 11:26:12 145.980
NANOSAT C BR1 24 Nov 11:17:59 11:21:04 19° 268° (W) 11:24:09 145.865
HUMSAT D 24 Nov 11:19:18 11:23:23 56° 288° (WNW) 11:27:28 437.325/437.525
UNISAT 6 24 Nov 11:19:46 11:22:01 14° 271° (W) 11:24:17 437.425
50 SAT 24 Nov 11:20:10 11:24:11 64° 287° (WNW) 11:28:13 437.505
ZACube-1 24 Nov 11:22:48 11:26:36 34° 292° (WNW) 11:30:27 437.345
HO-68 24 Nov 11:25:39 11:30:59 23° 309° (NW) 11:36:17 435.675
QB50P1 24 Nov 11:28:14 11:30:49 16° 270° (W) 11:33:25 145.935-145.965
GONETS M04 24 Nov 11:30:12 11:35:06 16° 311° (NW) 11:40:03
AISAT 24 Nov 11:42:52 11:46:55 35° 293° (WNW) 11:50:56 437.250
YUBILEINY 24 Nov 11:47:10 11:53:22 21° 55° (NE) 11:59:30 435.215
BUGSAT 1 24 Nov 11:49:29 11:50:57 12° 272° (W) 11:52:24 437.445
ITAMSAT 1 24 Nov 11:53:02 11:56:18 17° 56° (NE) 11:59:34 435.822/435.867
TISAT 1 24 Nov 11:53:10 11:57:02 34° 97° (E) 12:00:52 437.305
SPROUT 24 Nov 11:57:23 12:01:18 34° 96° (E) 12:05:12 437.525
FUNcube-1 24 Nov 11:59:14 12:01:56 17° 299° (WNW) 12:04:40 145.935
UKube-1 24 Nov 12:00:32 12:01:39 11° 305° (NW) 12:02:46 .
CUBEBUG 1 24 Nov 12:02:13 12:06:31 56° 289° (WNW) 12:10:45 437.445
M-CUBED/EXP-1 PRIME 24 Nov 12:09:00 12:10:38 12° 91° (E) 12:12:15 437.505
SO-50 24 Nov 12:10:28 12:15:18 65° 48° (NE) 12:20:10 436.795
Gurwin Techsat 1B 24 Nov 12:15:11 12:18:18 16° 55° (NE) 12:21:25 435.225
BEESAT 24 Nov 12:34:35 12:37:40 17° 90° (E) 12:40:43 436.000
AO-7 24 Nov 12:36:58 12:41:34 16° 37° (NE) 12:46:10 29.400- 29.500
Oscar 19 24 Nov 12:40:44 12:45:51 85° 74° (ENE) 12:51:01 437.125/150
CUSAT 1 24 Nov 12:43:09 12:45:14 20° 94° (E) 12:47:16 437.405
ESTCUBE 1 24 Nov 12:46:57 12:50:32 23° 297° (WNW) 12:54:05 437.505/2401.250
DANDE 24 Nov 13:01:04 13:03:32 29° 97° (E) 13:05:52 436.750
ITUPSAT 1 24 Nov 13:28:06 13:32:48 49° 100° (E) 13:37:27 437.325
TISAT 1 24 Nov 13:29:14 13:32:47 27° 295° (WNW) 13:36:18 437.305
KKS-1 24 Nov 13:29:42 13:31:28 12° 88° (E) 13:33:13 437.445
ITAMSAT 1 24 Nov 13:29:54 13:35:08 86° 255° (WSW) 13:40:23 435.822/435.867
SPROUT 24 Nov 13:33:41 13:37:19 27° 295° (WNW) 13:40:55 437.525
AUBIESAT-1 24 Nov 13:37:26 13:42:21 67° 107° (ESE) 13:47:12 437.475
SWISSCUBE 24 Nov 13:39:41 13:44:31 69° 103° (ESE) 13:49:17 437.505
M-CUBED/EXP-1 PRIME 24 Nov 13:41:27 13:46:24 78° 109° (ESE) 13:51:19 437.505
YUBILEINY 24 Nov 13:43:02 13:51:49 79° 79° (E) 14:00:31 435.215
HORYU 2 24 Nov 13:46:07 13:50:10 36° 67° (ENE) 13:54:14 437.375
JAS-2 24 Nov 13:49:23 13:52:08 12° 41° (NE) 13:54:52 435.910
SO-50 24 Nov 13:51:45 13:55:28 22° 247° (WSW) 13:59:12 436.795
Gurwin Techsat 1B 24 Nov 13:52:12 13:57:31 87° 74° (ENE) 14:02:52 435.225
BEESAT 24 Nov 14:11:13 14:16:00 67° 288° (WNW) 14:20:45 436.000
Oscar 19 24 Nov 14:23:12 14:25:53 14° 273° (W) 14:28:35 437.125/150
AO-7 24 Nov 14:24:36 14:32:31 52° 60° (ENE) 14:40:29 29.400- 29.500
STARS 24 Nov 14:27:21 14:31:16 31° 96° (E) 14:35:09 437.465
CUSAT 1 24 Nov 14:27:32 14:28:26 11° 293° (WNW) 14:29:20 437.405
RS-15 24 Nov 14:29:36 14:35:38 17° 96° (E) 14:41:38 29.354- 29.394
MaSat-1 24 Nov 14:50:24 14:51:50 13° 110° (ESE) 14:53:12 437.345
KKS-1 24 Nov 15:04:15 15:08:43 81° 286° (WNW) 15:13:09 437.445
ITUPSAT 1 24 Nov 15:06:35 15:10:25 24° 298° (WNW) 15:14:14 437.325
O/OREOS (USA 219) 24 Nov 15:09:37 15:13:50 39° 57° (ENE) 15:18:02 437.305
ITAMSAT 1 24 Nov 15:13:05 15:15:24 13° 273° (W) 15:17:44 435.822/435.867
AUBIESAT-1 24 Nov 15:13:12 15:16:53 22° 305° (NW) 15:20:35 437.475
M-CUBED/EXP-1 PRIME 24 Nov 15:17:27 15:20:54 19° 307° (NW) 15:24:21 437.505
SWISSCUBE 24 Nov 15:18:38 15:21:52 18° 301° (WNW) 15:25:06 437.505
PHONESAT 2.4 24 Nov 15:21:03 15:22:02 11° 154° (SSE) 15:23:01 2401.200-2431.200
HORYU 2 24 Nov 15:23:08 15:26:55 27° 265° (W) 15:30:43 437.375
JAS-2 24 Nov 15:28:04 15:35:11 42° 62° (ENE) 15:42:25 435.910
Gurwin Techsat 1B 24 Nov 15:35:20 15:38:12 15° 273° (W) 15:41:05 435.225
VERMONT LUNAR 24 Nov 15:37:14 15:39:25 15° 160° (SSE) 15:41:37 437.305
YUBILEINY 24 Nov 15:40:57 15:47:41 26° 281° (WNW) 15:54:24 435.215
BEESAT 24 Nov 15:51:39 15:52:57 11° 307° (NW) 15:54:15 436.000
Cubesat XI-IV 24 Nov 15:58:37 16:02:14 19° 56° (ENE) 16:05:52 437.490
MOZHAYETS 4 24 Nov 15:58:38 16:01:10 14° 88° (E) 16:03:41
STARS 24 Nov 16:03:52 16:07:45 31° 294° (WNW) 16:11:37 437.465
AO-7 24 Nov 16:17:39 16:25:27 44° 261° (W) 16:33:20 29.400- 29.500
MaSat-1 24 Nov 16:23:33 16:26:13 33° 304° (NW) 16:28:41 437.345
RS-15 24 Nov 16:34:54 16:45:40 67° 119° (ESE) 16:56:29 29.354- 29.394
CUTE-I 24 Nov 16:38:53 16:43:44 36° 65° (ENE) 16:48:35 437.470
KKS-1 24 Nov 16:43:05 16:44:38 12° 304° (NW) 16:46:11 437.445
O/OREOS (USA 219) 24 Nov 16:49:20 16:53:04 27° 256° (WSW) 16:56:48 437.305
PHONESAT 2.4 24 Nov 16:57:04 17:00:02 23° 170° (S) 17:03:01 2401.200-2431.200
JAS-2 24 Nov 17:12:33 17:20:00 53° 262° (W) 17:27:42 435.910
VERMONT LUNAR 24 Nov 17:14:14 17:17:14 24° 177° (S) 17:20:14 437.305
MOZHAYETS 4 24 Nov 17:34:16 17:38:57 75° 286° (WNW) 17:43:35
Cubesat XI-IV 24 Nov 17:36:20 17:41:43 81° 255° (WSW) 17:47:07 437.490
CUBESAT XI-V 24 Nov 17:36:42 17:38:01 11° 85° (E) 17:39:19 437.345
GONETS M04 24 Nov 17:36:52 17:43:33 23° 56° (ENE) 17:50:09
PRISM 24 Nov 17:43:04 17:46:45 28° 95° (E) 17:50:25 437.425
CUTE-I 24 Nov 18:18:49 18:23:47 38° 263° (W) 18:28:45 437.470
HO-68 24 Nov 18:23:20 18:28:54 25° 52° (NE) 18:34:29 435.675
PHONESAT 2.4 24 Nov 18:35:13 18:38:15 24° 188° (S) 18:41:16 2401.200-2431.200
PCSat 24 Nov 18:38:03 18:39:47 12° 102° (ESE) 18:41:32 145.827
AIST 1 24 Nov 18:44:34 18:47:02 15° 83° (E) 18:49:32
RS-15 24 Nov 18:48:05 18:58:36 50° 326° (NNW) 19:09:18 29.354- 29.394
CANX-2 24 Nov 18:51:49 18:54:24 16° 60° (ENE) 18:56:59 2200.000
VERMONT LUNAR 24 Nov 18:52:27 18:55:06 19° 194° (SSW) 18:57:46 437.305
BRITE-PL 24 Nov 18:55:36 18:58:56 19° 62° (ENE) 19:02:07 437.365/2234.400
COMPASS 1 24 Nov 19:00:27 19:02:32 14° 59° (ENE) 19:04:38 437.405
JAS-2 24 Nov 19:04:59 19:06:48 11° 283° (WNW) 19:08:37 435.910
STRAND 1 24 Nov 19:07:27 19:12:35 71° 103° (ESE) 19:17:40 437.568
CUBESAT XI-V 24 Nov 19:11:29 19:16:12 87° 103° (ESE) 19:20:51 437.345
MOZHAYETS 4 24 Nov 19:13:49 19:15:22 12° 305° (NW) 19:16:54
PRISM 24 Nov 19:18:31 19:22:20 32° 294° (WNW) 19:26:06 437.425
Cubesat XI-IV 24 Nov 19:20:31 19:22:40 12° 274° (W) 19:24:49 437.490
CUTE 1.7 & AOD 2 24 Nov 19:25:21 19:29:00 29° 67° (ENE) 19:32:42 437.475
BEESAT 2 24 Nov 19:30:40 19:31:13 10° 108° (ESE) 19:31:47 435.950
GONETS M04 24 Nov 19:32:56 19:41:51 85° 81° (E) 19:50:40
DOVE 4 24 Nov 19:36:13 19:39:46 23° 65° (ENE) 19:43:11 437.250
UKube-1 24 Nov 19:45:59 19:49:02 19° 61° (ENE) 19:52:05 .
Oscar 11 24 Nov 19:57:47 20:01:16 24° 64° (ENE) 20:04:45 145.826/435.025
AIST 2 24 Nov 19:58:43 19:59:29 10° 108° (ESE) 20:00:15 435.215
SEEDS 24 Nov 19:59:38 20:03:44 56° 72° (ENE) 20:07:52 437.485
CUBEBUG 2 24 Nov 20:06:19 20:09:14 18° 62° (ENE) 20:12:06 437.445
HO-68 24 Nov 20:08:39 20:15:51 84° 253° (WSW) 20:23:07 435.675
UWE-3 24 Nov 20:09:35 20:12:21 17° 62° (ENE) 20:15:06 435.000/436.395/437.385
GOMX 1 24 Nov 20:10:37 20:15:19 62° 73° (ENE) 20:19:43 467.674
PHONESAT 2.4 24 Nov 20:14:43 20:16:17 12° 204° (SSW) 20:17:52 2401.200-2431.200
PCSat 24 Nov 20:16:50 20:22:13 71° 120° (ESE) 20:27:39 145.827
DX 1 24 Nov 20:18:56 20:22:58 37° 67° (ENE) 20:27:01 434.975-435.025
AAUSAT CUBESAT 2 24 Nov 20:19:14 20:23:21 69° 74° (ENE) 20:27:32 437.432
AIST 1 24 Nov 20:19:49 20:24:11 62° 282° (WNW) 20:28:36
CINEMA 3 24 Nov 20:21:41 20:25:42 37° 69° (ENE) 20:29:37 145.822/145.860
CANX-2 24 Nov 20:25:42 20:29:53 63° 259° (W) 20:34:06 2200.000
DELFI C3 24 Nov 20:31:36 20:35:26 41° 70° (ENE) 20:39:19 145.870
BRITE-PL 24 Nov 20:32:07 20:37:06 65° 258° (WSW) 20:41:43 437.365/2234.400
COMPASS 1 24 Nov 20:33:34 20:37:43 76° 257° (WSW) 20:41:56 437.405
50 SAT 24 Nov 20:39:17 20:41:40 15° 61° (ENE) 20:44:03 437.505
ESTCUBE 1 24 Nov 20:40:43 20:41:11 10° 54° (NE) 20:41:39 437.505/2401.250
HUMSAT D 24 Nov 20:40:50 20:43:45 19° 63° (ENE) 20:46:40 437.325/437.525
VELOX 1 24 Nov 20:43:23 20:46:57 24° 63° (ENE) 20:50:31 145.980
ZACube-1 24 Nov 20:46:31 20:50:17 32° 68° (ENE) 20:54:01 437.345
STRAND 1 24 Nov 20:47:40 20:51:16 20° 302° (WNW) 20:54:50 437.568
BEESAT 3 24 Nov 20:50:21 20:54:26 66° 124° (SE) 20:58:36 437.485
CUBESAT XI-V 24 Nov 20:50:31 20:52:59 14° 303° (WNW) 20:55:26 437.345
CUTE 1.7 & AOD 2 24 Nov 21:01:11 21:04:55 30° 265° (W) 21:08:41 437.475
RS-15 24 Nov 21:04:33 21:14:11 33° 360° (N) 21:24:04 29.354- 29.394
BEESAT 2 24 Nov 21:04:38 21:08:46 81° 126° (SE) 21:12:59 435.950
AISAT 24 Nov 21:08:03 21:12:14 39° 68° (ENE) 21:16:25 437.250
DOVE 4 24 Nov 21:12:58 21:17:22 44° 261° (W) 21:21:33 437.250
UKube-1 24 Nov 21:20:33 21:24:50 56° 259° (W) 21:29:08 .
FUNcube-1 24 Nov 21:21:27 21:25:38 73° 74° (ENE) 21:29:48 145.935
CUBEBUG 1 24 Nov 21:26:37 21:30:11 24° 64° (ENE) 21:33:45 437.445
GONETS M04 24 Nov 21:31:02 21:37:34 24° 283° (WNW) 21:44:04
UNISAT 6 24 Nov 21:31:34 21:32:34 11° 87° (E) 21:33:33 437.425
AIST 2 24 Nov 21:33:06 21:37:21 80° 126° (SE) 21:41:40 435.215
Oscar 11 24 Nov 21:33:13 21:37:15 39° 262° (W) 21:41:20 145.826/435.025
SEEDS 24 Nov 21:37:22 21:39:57 16° 270° (W) 21:42:33 437.485
CUBEBUG 2 24 Nov 21:41:27 21:45:37 52° 260° (W) 21:49:44 437.445
UWE-3 24 Nov 21:44:23 21:48:33 56° 260° (W) 21:52:40 435.000/436.395/437.385
GOMX 1 24 Nov 21:50:45 21:53:48 17° 269° (W) 21:56:44 467.674
DX 1 24 Nov 21:55:39 21:59:19 26° 265° (W) 22:03:00 434.975-435.025
AAUSAT CUBESAT 2 24 Nov 21:57:37 21:59:32 13° 272° (W) 22:01:28 437.432
ANTELSAT 24 Nov 21:58:14 22:01:32 20° 92° (E) 22:04:52 437.575/2403.000
POPSAT HIP 1 24 Nov 21:58:36 22:00:40 13° 89° (E) 22:02:45 437.405
CINEMA 3 24 Nov 21:59:29 22:03:03 24° 266° (W) 22:06:32 145.822/145.860
HO-68 24 Nov 22:00:00 22:04:37 18° 273° (W) 22:09:16 435.675
PCSat 24 Nov 22:01:34 22:06:09 27° 322° (NW) 22:10:46 145.827
DELFI C3 24 Nov 22:07:55 22:10:57 20° 268° (W) 22:14:00 145.870
50 SAT 24 Nov 22:12:35 22:16:34 60° 259° (W) 22:20:34 437.505
ESTCUBE 1 24 Nov 22:12:40 22:17:11 67° 73° (ENE) 22:21:44 437.505/2401.250
HUMSAT D 24 Nov 22:15:16 22:19:16 48° 261° (W) 22:23:17 437.325/437.525
VELOX 1 24 Nov 22:19:02 22:23:19 44° 261° (W) 22:27:37 145.980
ZACube-1 24 Nov 22:23:09 22:26:43 26° 265° (W) 22:30:16 437.345
BEESAT 3 24 Nov 22:29:44 22:33:04 23° 325° (NW) 22:36:26 437.485
POLYITAN 1 24 Nov 22:30:08 22:33:48 28° 95° (E) 22:37:27 437.675
QB50P2 24 Nov 22:32:38 22:36:23 29° 96° (E) 22:40:05 145.880/145.840
DUCHIFAT 1 24 Nov 22:39:27 22:43:19 34° 97° (E) 22:47:08 145.980
BEESAT 2 24 Nov 22:44:27 22:47:35 20° 327° (NNW) 22:50:46 435.950
AISAT 24 Nov 22:45:17 22:49:00 25° 266° (W) 22:52:43 437.250
TISAT 1 24 Nov 22:49:16 22:53:18 42° 69° (ENE) 22:57:20 437.305
TIGRISAT 24 Nov 22:52:37 22:57:00 66° 102° (ESE) 23:01:27 435.000
SPROUT 24 Nov 22:55:07 22:59:12 42° 69° (ENE) 23:03:17 437.525
AUBIESAT-1 24 Nov 22:56:57 23:00:07 21° 54° (NE) 23:03:28 437.475
NANOSAT C BR1 24 Nov 22:58:29 23:02:38 53° 100° (E) 23:06:46 145.865
FUNcube-1 24 Nov 23:00:51 23:02:31 12° 272° (W) 23:04:11 145.935
M-CUBED/EXP-1 PRIME 24 Nov 23:01:01 23:04:23 24° 56° (NE) 23:07:59 437.505
CUBEBUG 1 24 Nov 23:02:07 23:06:21 42° 262° (W) 23:10:37 437.445
ITUPSAT 1 24 Nov 23:03:44 23:06:08 14° 55° (NE) 23:08:32 437.325
UNISAT 6 24 Nov 23:05:33 23:10:00 89° 104° (ESE) 23:14:31 437.425
QB50P1 24 Nov 23:08:10 23:12:24 68° 102° (ESE) 23:16:35 145.935-145.965
AIST 2 24 Nov 23:13:13 23:16:30 21° 327° (NNW) 23:19:50 435.215
SWISSCUBE 24 Nov 23:14:11 23:17:24 18° 58° (ENE) 23:20:37 437.505
CUSAT 1 24 Nov 23:15:15 23:19:13 38° 75° (ENE) 23:24:26 437.405
RS-15 24 Nov 23:19:11 23:29:52 49° 33° (NNE) 23:40:54 29.354- 29.394
BUGSAT 1 24 Nov 23:25:24 23:29:32 86° 104° (ESE) 23:33:36 437.445
POPSAT HIP 1 24 Nov 23:32:51 23:37:04 68° 287° (WNW) 23:41:15 437.405
ANTELSAT 24 Nov 23:34:20 23:38:36 48° 290° (WNW) 23:42:56 437.575/2403.000
DANDE 24 Nov 23:35:38 23:39:35 49° 77° (ENE) 23:44:53 436.750
BEESAT 24 Nov 23:44:24 23:48:31 29° 64° (ENE) 23:52:39 436.000
PCSat 24 Nov 23:49:48 23:51:32 11° 347° (NNW) 23:53:16 145.827
ESTCUBE 1 24 Nov 23:51:49 23:54:32 16° 271° (W) 23:57:17 437.505/2401.250
POLYITAN 1 25 Nov 00:06:01 00:09:47 32° 293° (WNW) 00:13:32 437.675
QB50P2 25 Nov 00:08:34 00:12:17 30° 294° (WNW) 00:15:59 145.880/145.840
DUCHIFAT 1 25 Nov 00:15:33 00:19:06 27° 295° (WNW) 00:22:37 145.980
MaSat-1 25 Nov 00:24:19 00:26:37 67° 59° (ENE) 00:28:57 437.345
TISAT 1 25 Nov 00:26:01 00:29:19 22° 267° (W) 00:32:38 437.305
ISS 25 Nov 00:28:55 00:32:04 44° 148° (SSE) 00:35:14 145.825
TIGRISAT 25 Nov 00:30:33 00:33:19 17° 300° (WNW) 00:36:06 435.000
AUBIESAT-1 25 Nov 00:30:41 00:34:42 55° 255° (WSW) 00:39:07 437.475
KKS-1 25 Nov 00:31:07 00:34:14 19° 61° (ENE) 00:37:21 437.445
SPROUT 25 Nov 00:32:06 00:35:28 22° 267° (W) 00:38:52 437.525
M-CUBED/EXP-1 PRIME 25 Nov 00:35:14 00:39:10 45° 256° (WSW) 00:43:28 437.505
NANOSAT C BR1 25 Nov 00:35:16 00:38:10 18° 299° (WNW) 00:41:03 145.865
ITUPSAT 1 25 Nov 00:38:28 00:43:18 85° 74° (ENE) 00:48:10 437.325
UNISAT 6 25 Nov 00:44:12 00:46:11 13° 302° (WNW) 00:48:10 437.425
QB50P1 25 Nov 00:45:23 00:47:48 15° 301° (WNW) 00:50:14 145.935-145.965
Oscar 19 25 Nov 00:49:17 00:53:21 23° 92° (E) 00:57:25 437.125/150
SWISSCUBE 25 Nov 00:49:58 00:54:45 71° 257° (WSW) 00:59:35 437.505
YUBILEINY 25 Nov 00:55:40 01:01:10 19° 74° (ENE) 01:06:39 435.215
CUSAT 1 25 Nov 00:58:37 01:02:19 27° 265° (W) 01:06:58 437.405
BUGSAT 1 25 Nov 01:02:53 01:04:25 12° 303° (WNW) 01:05:56 437.445
DANDE 25 Nov 01:19:53 01:23:01 20° 266° (W) 01:26:48 436.750
BEESAT 25 Nov 01:21:46 01:26:15 39° 262° (W) 01:30:46 436.000
STARS 25 Nov 01:28:00 01:32:10 43° 69° (ENE) 01:36:21 437.465
RS-15 25 Nov 01:31:55 01:43:00 72° 239° (WSW) 01:54:35 29.354- 29.394
PCSat 25 Nov 01:35:45 01:37:36 12° 14° (NNE) 01:39:26 145.827
ITAMSAT 1 25 Nov 01:39:42 01:44:00 26° 93° (E) 01:48:16 435.822/435.867
Gurwin Techsat 1B 25 Nov 02:05:15 02:09:43 27° 93° (E) 02:14:09 435.225
ISS 25 Nov 02:05:28 02:08:42 54° 347° (NNW) 02:11:57 145.825
KKS-1 25 Nov 02:06:06 02:10:30 57° 259° (W) 02:14:54 437.445
ITUPSAT 1 25 Nov 02:19:35 02:21:51 13° 273° (W) 02:24:07 437.325
AO-7 25 Nov 02:26:26 02:27:39 10° 80° (E) 02:28:53 29.400- 29.500
Oscar 19 25 Nov 02:27:59 02:33:01 54° 290° (WNW) 02:38:03 437.125/150
AIST 2 25 Nov 02:36:47 02:37:29 10° 15° (NNE) 02:38:11 435.215
YUBILEINY 25 Nov 02:47:43 02:56:31 80° 96° (E) 03:05:18 435.215
MOZHAYETS 4 25 Nov 03:04:03 03:07:30 21° 62° (ENE) 03:10:59
STARS 25 Nov 03:05:24 03:08:51 22° 267° (W) 03:12:20 437.465
HORYU 2 25 Nov 03:10:22 03:14:41 44° 99° (E) 03:18:59 437.375
PCSat 25 Nov 03:18:17 03:22:57 28° 39° (NE) 03:27:35 145.827
ITAMSAT 1 25 Nov 03:18:45 03:23:45 49° 292° (WNW) 03:28:42 435.822/435.867
BEESAT 3 25 Nov 03:29:26 03:32:51 23° 36° (NE) 03:36:15 437.485
